This demonstration page uses our WeatherBlox Daily Observations layout. Learn more.

Left ArrowRight Arrow

39.08367, -84.50855

Hourly Observations for September 10, 2015

Temp ( °F °C ) Dew Point ( °F °C ) Humidity (%) Winds ( mph kmh ) Pressure ( in mb ) Visibility ( mi km ) Precip ( " mm )
12:53 am 00:53 Partly Cloudy with Mist and Fog 68 20 68 20 100 100 Calm 29.91 1013 5 8 0.00 0.00
1:53 am 01:53 Mostly Cloudy 69 20.6 69 20.6 100 100 Calm 29.91 1013 8 13 0.00 0.00
2:53 am 02:53 Mostly Clear 68 20 68 20 100 100 Calm 29.90 1013 10 16 0.00 0.00
3:53 am 03:53 Cloudy 69 20.6 67 19.4 93 93 Calm 29.89 1012 10 16 0.00 0.00
4:53 am 04:53 Mostly Cloudy 68 20 67 19.4 96 96 Calm 29.89 1012 9 14 0.00 0.00
5:53 am 05:53 Cloudy 68 20 67 19.4 96 96 N 6 9 29.89 1012 9 14 0.00 0.00
6:16 am 06:16 Cloudy 68 20 66 19 94 94 NE 3 6 29.91 1013 10 16 0.00 0.00
6:53 am 06:53 Cloudy 68 20 66 18.9 93 93 NNE 5 7 29.90 1012 10 16 0.00 0.00
7:53 am 07:53 Cloudy 68 20 66 18.9 93 93 NNE 8 13 29.91 1013 10 16 0.00 0.00
8:53 am 08:53 Cloudy 69 20.6 66 18.9 90 90 NNE 7 11 29.92 1013 10 16 0.00 0.00
9:53 am 09:53 Cloudy 70 21.1 66 18.9 87 87 NE 7 11 29.91 1013 10 16 0.00 0.00
10:53 am 10:53 Mostly Cloudy 73 22.8 66 18.9 79 79 NE 6 9 29.92 1013 10 16 0.00 0.00
12:53 pm 12:53 Mostly Cloudy 78 25.6 67 19.4 69 69 N 6 9 29.90 1012 10 16 0.00 0.00
1:53 pm 13:53 Mostly Cloudy 79 26.1 65 18.3 62 62 VRB 3 6 29.88 1012 10 16 0.00 0.00
2:53 pm 14:53 Sunny 81 27.2 64 17.8 57 57 NE 6 9 29.86 1011 10 16 0.00 0.00
3:53 pm 15:53 Mostly Sunny 82 27.8 63 17.2 53 53 ENE 6 9 29.85 1011 10 16 0.00 0.00
4:53 pm 16:53 Partly Cloudy 82 27.8 63 17.2 53 53 ENE 6 9 29.84 1010 10 16 0.00 0.00
5:53 pm 17:53 Partly Cloudy 82 27.8 58 14.4 44 44 N 6 9 29.83 1010 10 16 0.00 0.00
6:53 pm 18:53 Mostly Sunny 80 26.7 56 13.3 44 44 N 6 9 29.83 1010 10 16 0.00 0.00
7:53 pm 19:53 Partly Cloudy 72 22.2 64 17.8 76 76 Calm 29.85 1011 10 16 0.00 0.00
8:53 pm 20:53 Clear 67 19.4 64 17.8 91 91 Calm 29.87 1012 10 16 0.00 0.00
9:53 pm 21:53 Clear 65 18.3 63 17.2 93 93 Calm 29.89 1012 10 16 0.00 0.00
10:53 pm 22:53 Clear 64 17.8 63 17.2 96 96 Calm 29.89 1012 10 16 0.00 0.00
11:53 pm 23:53 Clear 62 16.7 62 16.7 100 100 Calm 29.89 1012 7 11 0.00 0.00

Powered by AerisWeather